OBJECT DB, 58570

Orbit data source: Space-Track

You're viewing an Uncataloged Satellite

Recently launched and/or uncataloged satellites may have evolving metadata. Metadata may include but not limited to: Owner, Maufacturer, Bus, Motor, and Mission.

OBJECT DB, 58570 is a satellite in SSO that was launched on Sat, 11 Nov 2023 UTC via an FALCON 9 launch vehicle from the Air Force Western Test Range (AFWTR). Unknown objects in Earth's orbit typically refer to objects detected orbiting the Earth but have not yet been identified or cataloged. These objects could be anything from previously untracked satellites, spent rocket stages, debris from satellite collisions, or even natural meteoroids temporarily captured by Earth's gravity.

Loading next visibility...
Identifier
58570, 2023-174DB
Orbit
SSO
Country
Flag of TBDTBD
Related business
None
Manufacturer
Unknown
Mission
Commercial Communications
Bus & Motor
Unknown
Mass
Unknown
Launch date (UTC)
2023-11-11 (2 years ago)
Launch vehicle
FALCON 9
Launch site
Air Force Western Test Range (AFWTR)
Object type
Unknown
Shape & HBR
Box, 0.1 m
Radar Cross Section
0.080 m², Small (<0.1 m²)

Expand to show TLE details & history
Last TLE update: 4 hours ago

TLE from 4 hours ago
0 OBJECT DB
1 58570U 23174DB  25299.20025207  .00039890  00000-0  80038-3 0  9998
2 58570  97.4003  21.7112 0004583 246.1053 113.9717 15.46575727109687
Epoch: 2025-10-26T04:48Z
TLE epoch observation values (Epoch: 2025-10-26T04:48:21.778Z)
Latitude
-0.00001°
Longitude
-85.1994°
Altitude
431.147 km
Speed
7.652 km/s
True Right ascension
01h 26m 50s
True Declination
0° 00' 00"
Sunlit
Object was in full shadow at epoch
Visualization orbit readout
Latitude
Unknown
Longitude
Unknown
Altitude
Unknown
Speed
Unknown
Apparent Right ascension
Unknown
Apparent Declination
Unknown
Sunlit
N/A
Visualization observer readout
Local Sidereal Time
03:53:27
Azimuth
Unknown
Elevation
Unknown
Doppler factor
Unknown
Orbital elements
Apogee altitude
426.8 km
Perigee altitude
420.565 km
Semi-major axis
6,801.819 km
Eccentricity
0.00046
Inclination
97.4003°
RAAN
21.7112°
Arg. of periapsis
246.1053°
True anomaly
114.01968°
Mean anomaly
113.9717°
Eccentric anomaly
113.99569°
Mean motion
3.86906 °/min
Orbital period
93.05 mins
BSTAR
0.00080038
Loading maneuver chart data...
Computing Atmospheric mass density...
Loading historical data...
Loading historical data...
Loading historical data...
Loading historical data...
Loading historical data...
Loading historical data...
Loading historical data...

Documentation

Showing up to 5 results
|